Time,TemperatureF,DewpointF,PressureIn,WindDirection,WindDirectionDegrees,WindSpeedMPH,WindSpeedGustMPH,Humidity,HourlyPrecipIn,Conditions,Clouds,dailyrainin,SolarRadiationWatts/m^2,SoftwareType,DateUTC
2013-01-19 00:02:00,44.5,39.7,30.25,ESE,118,4.0,4.0,83,0.00,,,0.00,0,Wunderground v.1.15,2013-01-19 08:02:00,
2013-01-19 00:07:00,44.6,39.4,30.25,ESE,109,3.0,5.0,82,0.00,,,0.00,0,Wunderground v.1.15,2013-01-19 08:07:00,
2013-01-19 00:13:00,44.6,39.4,30.25,ESE,105,0.0,0.0,82,0.00,,,0.00,0,Wunderground v.1.15,2013-01-19 08:13:00,
2013-01-19 00:19:00,44.5,39.3,30.25,ESE,106,2.0,2.0,82,0.00,,,0.00,0,Wunderground v.1.15,2013-01-19 08:19:00,
2013-01-19 00:24:00,44.4,39.2,30.25,ESE,122,0.0,2.0,82,0.00,,,0.00,0,Wunderground v.1.15,2013-01-19 08:24:00,
2013-01-19 00:30:00,44.1,39.3,30.25,ESE,106,0.0,0.0,83,0.00,,,0.00,0,Wunderground v.1.15,2013-01-19 08:30:00,
2013-01-19 00:35:00,44.0,39.2,30.25,ESE,120,1.0,2.0,83,0.00,,,0.00,0,Wunderground v.1.15,2013-01-19 08:35:00,
2013-01-19 00:40:00,44.0,38.9,30.25,ESE,118,4.0,4.0,82,0.00,,,0.00,0,Wunderground v.1.15,2013-01-19 08:40:00,
2013-01-19 00:46:00,44.2,38.4,30.26,East,95,4.0,4.0,80,0.00,,,0.00,0,Wunderground v.1.15,2013-01-19 08:46:00,
2013-01-19 00:52:00,44.1,39.0,30.25,ESE,110,0.0,0.0,82,0.00,,,0.00,0,Wunderground v.1.15,2013-01-19 08:52:00,
2013-01-19 00:58:00,43.6,38.8,30.26,ESE,113,0.0,1.0,83,0.00,,,0.00,0,Wunderground v.1.15,2013-01-19 08:58:00,
2013-01-19 01:03:00,43.3,38.5,30.26,ESE,114,0.0,6.0,83,0.00,,,0.00,0,Wunderground v.1.15,2013-01-19 09:03:00,
2013-01-19 01:09:00,43.2,38.4,30.26,ESE,114,0.0,6.0,83,0.00,,,0.00,0,Wunderground v.1.15,2013-01-19 09:09:00,
2013-01-19 01:15:00,43.2,38.1,30.26,NE,50,0.0,1.0,82,0.00,,,0.00,0,Wunderground v.1.15,2013-01-19 09:15:00,
2013-01-19 01:20:00,43.2,38.1,30.26,ENE,63,0.0,0.0,82,0.00,,,0.00,0,Wunderground v.1.15,2013-01-19 09:20:00,
2013-01-19 01:26:00,43.1,38.0,30.27,ENE,65,0.0,0.0,82,0.00,,,0.00,0,Wunderground v.1.15,2013-01-19 09:26:00,
2013-01-19 01:32:00,43.2,37.8,30.27,East,92,1.0,1.0,81,0.00,,,0.00,0,Wunderground v.1.15,2013-01-19 09:32:00,
2013-01-19 01:37:00,43.2,37.4,30.27,East,92,1.0,3.0,80,0.00,,,0.00,0,Wunderground v.1.15,2013-01-19 09:37:00,
2013-01-19 01:42:00,43.3,37.2,30.27,ESE,114,1.0,2.0,79,0.00,,,0.00,0,Wunderground v.1.15,2013-01-19 09:42:00,
2013-01-19 01:48:00,43.4,37.0,30.28,ESE,122,2.0,3.0,78,0.00,,,0.00,0,Wunderground v.1.15,2013-01-19 09:48:00,
2013-01-19 01:54:00,43.5,37.1,30.27,ESE,105,1.0,3.0,78,0.00,,,0.00,0,Wunderground v.1.15,2013-01-19 09:54:00,
2013-01-19 02:00:00,43.0,37.3,30.28,East,99,0.0,0.0,80,0.00,,,0.00,0,Wunderground v.1.15,2013-01-19 10:00:00,
2013-01-19 02:07:00,42.5,36.8,30.28,ESE,109,2.0,7.0,80,0.00,,,0.00,0,Wunderground v.1.15,2013-01-19 10:07:00,
2013-01-19 02:13:00,42.6,36.5,30.28,ESE,120,2.0,2.0,79,0.00,,,0.00,0,Wunderground v.1.15,2013-01-19 10:13:00,
2013-01-19 02:19:00,42.9,36.5,30.28,SE,133,2.0,3.0,78,0.00,,,0.00,0,Wunderground v.1.15,2013-01-19 10:19:00,
2013-01-19 02:24:00,42.9,36.5,30.28,ESE,117,3.0,4.0,78,0.00,,,0.00,0,Wunderground v.1.15,2013-01-19 10:24:00,
2013-01-19 02:30:00,43.0,36.3,30.29,ESE,108,2.0,2.0,77,0.00,,,0.00,0,Wunderground v.1.15,2013-01-19 10:30:00,
2013-01-19 02:35:00,43.0,36.6,30.29,East,98,0.0,3.0,78,0.00,,,0.00,0,Wunderground v.1.15,2013-01-19 10:35:00,
2013-01-19 02:42:00,42.7,36.3,30.29,ESE,106,1.0,2.0,78,0.00,,,0.00,0,Wunderground v.1.15,2013-01-19 10:42:00,
2013-01-19 02:48:00,42.4,36.0,30.29,ESE,112,1.0,2.0,78,0.00,,,0.00,0,Wunderground v.1.15,2013-01-19 10:48:00,
2013-01-19 02:54:00,42.5,35.8,30.29,ESE,120,2.0,2.0,77,0.00,,,0.00,0,Wunderground v.1.15,2013-01-19 10:54:00,
2013-01-19 02:59:00,42.5,35.8,30.29,ESE,123,2.0,2.0,77,0.00,,,0.00,0,Wunderground v.1.15,2013-01-19 10:59:00,
2013-01-19 03:07:00,42.4,36.0,30.29,ESE,112,0.0,5.0,78,0.00,,,0.00,0,Wunderground v.1.15,2013-01-19 11:07:00,
2013-01-19 03:13:00,42.2,35.8,30.29,ESE,112,0.0,0.0,78,0.00,,,0.00,0,Wunderground v.1.15,2013-01-19 11:13:00,
2013-01-19 04:48:00,42.6,34.5,30.30,SE,128,2.0,5.0,73,0.00,,,0.00,0,Wunderground v.1.15,2013-01-19 12:48:00,
2013-01-19 04:51:00,42.6,34.5,30.30,SE,140,1.0,2.0,73,0.00,,,0.00,0,Wunderground v.1.15,2013-01-19 12:51:00,
2013-01-19 04:52:00,42.5,34.5,30.30,SE,124,2.0,2.0,73,0.00,,,0.00,0,Wunderground v.1.15,2013-01-19 12:52:00,
2013-01-19 04:54:00,42.5,34.5,30.30,SE,126,0.0,2.0,73,0.00,,,0.00,0,Wunderground v.1.15,2013-01-19 12:54:00,
2013-01-19 05:00:00,41.8,34.8,30.31,NE,40,1.0,1.0,76,0.00,,,0.00,0,Wunderground v.1.15,2013-01-19 13:00:00,
2013-01-19 05:07:00,40.7,34.4,30.31,NNE,25,0.0,5.0,78,0.00,,,0.00,0,Wunderground v.1.15,2013-01-19 13:07:00,
2013-01-19 05:13:00,40.3,34.3,30.31,NNE,25,0.0,0.0,79,0.00,,,0.00,0,Wunderground v.1.15,2013-01-19 13:13:00,
2013-01-19 05:18:00,40.4,34.1,30.31,NNE,25,0.0,0.0,78,0.00,,,0.00,0,Wunderground v.1.15,2013-01-19 13:18:00,
2013-01-19 05:24:00,40.5,33.9,30.31,NE,51,0.0,0.0,77,0.00,,,0.00,0,Wunderground v.1.15,2013-01-19 13:24:00,
2013-01-19 05:30:00,40.7,34.0,30.32,ESE,114,0.0,0.0,77,0.00,,,0.00,0,Wunderground v.1.15,2013-01-19 13:30:00,
2013-01-19 05:36:00,40.7,34.0,30.32,ESE,110,0.0,0.0,77,0.00,,,0.00,0,Wunderground v.1.15,2013-01-19 13:36:00,
2013-01-19 05:41:00,40.8,33.5,30.32,East,91,0.0,1.0,75,0.00,,,0.00,0,Wunderground v.1.15,2013-01-19 13:41:00,
2013-01-19 05:46:00,41.0,33.7,30.32,ESE,115,0.0,2.0,75,0.00,,,0.00,0,Wunderground v.1.15,2013-01-19 13:46:00,
2013-01-19 05:51:00,41.1,33.8,30.32,ESE,115,0.0,0.0,75,0.00,,,0.00,0,Wunderground v.1.15,2013-01-19 13:51:00,
2013-01-19 05:57:00,40.6,34.0,30.32,ESE,115,0.0,0.0,77,0.00,,,0.00,0,Wunderground v.1.15,2013-01-19 13:57:00,
2013-01-19 06:02:00,40.4,33.8,30.32,ESE,115,0.0,8.0,77,0.00,,,0.00,0,Wunderground v.1.15,2013-01-19 14:02:00,
2013-01-19 06:07:00,40.1,33.8,30.33,ESE,115,0.0,8.0,78,0.00,,,0.00,0,Wunderground v.1.15,2013-01-19 14:07:00,
2013-01-19 06:13:00,40.0,33.4,30.33,ESE,115,0.0,0.0,77,0.00,,,0.00,0,Wunderground v.1.15,2013-01-19 14:13:00,
2013-01-19 06:18:00,39.9,33.3,30.33,ESE,115,0.0,0.0,77,0.00,,,0.00,0,Wunderground v.1.15,2013-01-19 14:18:00,
2013-01-19 06:24:00,39.9,33.6,30.33,ESE,115,0.0,0.0,78,0.00,,,0.00,0,Wunderground v.1.15,2013-01-19 14:24:00,
2013-01-19 06:30:00,39.9,33.3,30.33,ESE,115,0.0,0.0,77,0.00,,,0.00,0,Wunderground v.1.15,2013-01-19 14:30:00,
2013-01-19 06:35:00,40.0,33.4,30.33,ESE,107,0.0,2.0,77,0.00,,,0.00,0,Wunderground v.1.15,2013-01-19 14:35:00,
2013-01-19 06:40:00,39.3,33.0,30.33,ESE,103,0.0,0.0,78,0.00,,,0.00,0,Wunderground v.1.15,2013-01-19 14:40:00,
2013-01-19 06:46:00,39.1,32.8,30.33,ENE,62,0.0,0.0,78,0.00,,,0.00,0,Wunderground v.1.15,2013-01-19 14:46:00,
2013-01-19 06:51:00,39.3,33.0,30.33,ENE,63,0.0,0.0,78,0.00,,,0.00,0,Wunderground v.1.15,2013-01-19 14:51:00,
2013-01-19 06:56:00,39.5,32.9,30.33,ENE,63,0.0,0.0,77,0.00,,,0.00,0,Wunderground v.1.15,2013-01-19 14:56:00,
2013-01-19 07:02:00,39.7,32.8,30.33,ESE,103,0.0,5.0,76,0.00,,,0.00,0,Wunderground v.1.15,2013-01-19 15:02:00,
2013-01-19 07:08:00,39.9,32.6,30.33,ESE,106,2.0,5.0,75,0.00,,,0.00,0,Wunderground v.1.15,2013-01-19 15:08:00,
2013-01-19 07:13:00,40.0,32.4,30.33,ESE,115,2.0,2.0,74,0.00,,,0.00,0,Wunderground v.1.15,2013-01-19 15:13:00,
2013-01-19 07:18:00,40.2,32.6,30.34,SE,128,2.0,2.0,74,0.00,,,0.00,0,Wunderground v.1.15,2013-01-19 15:18:00,
2013-01-19 07:24:00,40.6,32.3,30.34,ESE,121,3.0,4.0,72,0.00,,,0.00,0,Wunderground v.1.15,2013-01-19 15:24:00,
2013-01-19 07:29:00,40.8,32.8,30.34,ESE,111,0.0,0.0,73,0.00,,,0.00,0,Wunderground v.1.15,2013-01-19 15:29:00,
2013-01-19 07:35:00,40.5,33.2,30.34,ESE,109,0.0,2.0,75,0.00,,,0.00,0,Wunderground v.1.15,2013-01-19 15:35:00,
2013-01-19 07:41:00,39.9,32.9,30.34,ESE,115,0.0,1.0,76,0.00,,,0.00,0,Wunderground v.1.15,2013-01-19 15:41:00,
2013-01-19 07:46:00,39.5,32.6,30.34,East,94,0.0,1.0,76,0.00,,,0.00,0,Wunderground v.1.15,2013-01-19 15:46:00,
2013-01-19 07:52:00,39.7,32.4,30.34,East,95,0.0,0.0,75,0.00,,,0.00,0,Wunderground v.1.15,2013-01-19 15:52:00,
2013-01-19 07:58:00,39.6,32.7,30.34,East,84,0.0,0.0,76,0.00,,,0.00,0,Wunderground v.1.15,2013-01-19 15:58:00,
2013-01-19 08:03:00,39.7,32.8,30.35,East,82,0.0,4.0,76,0.00,,,0.00,0,Wunderground v.1.15,2013-01-19 16:03:00,
2013-01-19 08:08:00,40.0,32.7,30.34,East,82,0.0,4.0,75,0.00,,,0.00,0,Wunderground v.1.15,2013-01-19 16:08:00,
2013-01-19 08:14:00,40.3,32.7,30.34,East,82,0.0,0.0,74,0.00,,,0.00,0,Wunderground v.1.15,2013-01-19 16:14:00,
2013-01-19 08:20:00,40.8,32.8,30.34,East,82,0.0,0.0,73,0.00,,,0.00,0,Wunderground v.1.15,2013-01-19 16:20:00,
2013-01-19 08:26:00,41.5,33.1,30.34,ESE,104,1.0,1.0,72,0.00,,,0.00,0,Wunderground v.1.15,2013-01-19 16:26:00,
2013-01-19 08:31:00,42.3,33.9,30.34,ESE,105,0.0,1.0,72,0.00,,,0.00,0,Wunderground v.1.15,2013-01-19 16:31:00,
2013-01-19 08:36:00,43.0,34.6,30.34,ESE,105,0.0,1.0,72,0.00,,,0.00,0,Wunderground v.1.15,2013-01-19 16:36:00,
2013-01-19 08:41:00,43.4,35.0,30.34,ESE,105,0.0,0.0,72,0.00,,,0.00,0,Wunderground v.1.15,2013-01-19 16:41:00,
2013-01-19 08:47:00,43.7,34.9,30.34,ESE,105,0.0,0.0,71,0.00,,,0.00,0,Wunderground v.1.15,2013-01-19 16:47:00,
2013-01-19 08:52:00,44.1,36.0,30.34,ESE,105,0.0,0.0,73,0.00,,,0.00,0,Wunderground v.1.15,2013-01-19 16:52:00,
2013-01-19 08:58:00,44.5,36.0,30.34,ESE,105,0.0,0.0,72,0.00,,,0.00,0,Wunderground v.1.15,2013-01-19 16:58:00,
2013-01-19 09:03:00,45.0,36.9,30.34,ESE,105,0.0,4.0,73,0.00,,,0.00,0,Wunderground v.1.15,2013-01-19 17:03:00,
2013-01-19 09:09:00,45.4,37.2,30.34,ESE,105,0.0,4.0,73,0.00,,,0.00,0,Wunderground v.1.15,2013-01-19 17:09:00,
2013-01-19 09:14:00,45.9,38.4,30.34,ESE,105,0.0,0.0,75,0.00,,,0.00,0,Wunderground v.1.15,2013-01-19 17:14:00,
2013-01-19 09:19:00,46.3,38.8,30.35,ESE,105,0.0,0.0,75,0.00,,,0.00,0,Wunderground v.1.15,2013-01-19 17:19:00,
2013-01-19 09:25:00,46.9,39.4,30.35,ESE,105,0.0,0.0,75,0.00,,,0.00,0,Wunderground v.1.15,2013-01-19 17:25:00,
2013-01-19 09:31:00,47.3,39.8,30.35,NE,56,1.0,1.0,75,0.00,,,0.00,0,Wunderground v.1.15,2013-01-19 17:31:00,
2013-01-19 09:36:00,47.6,39.7,30.35,North,8,0.0,1.0,74,0.00,,,0.00,0,Wunderground v.1.15,2013-01-19 17:36:00,
2013-01-19 09:41:00,47.9,39.3,30.35,North,355,2.0,2.0,72,0.00,,,0.00,0,Wunderground v.1.15,2013-01-19 17:41:00,
2013-01-19 09:46:00,48.2,39.2,30.35,NNW,336,2.0,2.0,71,0.00,,,0.00,0,Wunderground v.1.15,2013-01-19 17:46:00,
2013-01-19 09:52:00,48.4,38.7,30.35,NNW,344,2.0,3.0,69,0.00,,,0.00,0,Wunderground v.1.15,2013-01-19 17:52:00,
2013-01-19 09:57:00,48.6,38.1,30.35,North,1,2.0,3.0,67,0.00,,,0.00,0,Wunderground v.1.15,2013-01-19 17:57:00,
2013-01-19 10:02:00,48.8,38.7,30.36,NNW,327,1.0,1.0,68,0.00,,,0.00,0,Wunderground v.1.15,2013-01-19 18:02:00,
2013-01-19 10:07:00,49.4,41.5,30.36,WNW,285,0.0,3.0,74,0.00,,,0.00,0,Wunderground v.1.15,2013-01-19 18:07:00,
2013-01-19 10:13:00,49.8,42.2,30.35,West,266,0.0,4.0,75,0.00,,,0.00,0,Wunderground v.1.15,2013-01-19 18:13:00,
2013-01-19 10:18:00,50.3,42.7,30.35,NW,309,1.0,4.0,75,0.00,,,0.00,0,Wunderground v.1.15,2013-01-19 18:18:00,
2013-01-19 10:25:00,50.5,41.4,30.35,West,264,3.0,3.0,71,0.00,,,0.00,0,Wunderground v.1.15,2013-01-19 18:25:00,
2013-01-19 10:31:00,50.8,41.4,30.35,WNW,293,0.0,3.0,70,0.00,,,0.00,0,Wunderground v.1.15,2013-01-19 18:31:00,
2013-01-19 10:36:00,51.0,41.9,30.35,WNW,300,1.0,3.0,71,0.00,,,0.00,0,Wunderground v.1.15,2013-01-19 18:36:00,
2013-01-19 10:41:00,51.2,42.1,30.35,West,262,2.0,2.0,71,0.00,,,0.00,0,Wunderground v.1.15,2013-01-19 18:41:00,
2013-01-19 10:46:00,51.4,41.9,30.35,WNW,292,0.0,3.0,70,0.00,,,0.00,0,Wunderground v.1.15,2013-01-19 18:46:00,
2013-01-19 10:51:00,51.5,41.7,30.35,NW,313,0.0,2.0,69,0.00,,,0.00,0,Wunderground v.1.15,2013-01-19 18:51:00,
2013-01-19 10:56:00,51.5,40.9,30.34,NW,322,1.0,4.0,67,0.00,,,0.00,0,Wunderground v.1.15,2013-01-19 18:56:00,
2013-01-19 11:02:00,51.7,39.9,30.34,NNW,331,3.0,4.0,64,0.00,,,0.00,0,Wunderground v.1.15,2013-01-19 19:02:00,
2013-01-19 11:08:00,51.8,40.8,30.34,NNW,333,1.0,4.0,66,0.00,,,0.00,0,Wunderground v.1.15,2013-01-19 19:08:00,
2013-01-19 11:14:00,52.1,41.9,30.34,NW,316,2.0,3.0,68,0.00,,,0.00,0,Wunderground v.1.15,2013-01-19 19:14:00,
2013-01-19 11:20:00,52.4,42.9,30.33,NNW,337,2.0,2.0,70,0.00,,,0.00,0,Wunderground v.1.15,2013-01-19 19:20:00,
2013-01-19 11:25:00,52.8,44.0,30.33,WSW,238,0.0,3.0,72,0.00,,,0.00,0,Wunderground v.1.15,2013-01-19 19:25:00,
2013-01-19 11:30:00,53.1,43.6,30.33,WNW,291,3.0,3.0,70,0.00,,,0.00,0,Wunderground v.1.15,2013-01-19 19:30:00,
2013-01-19 11:35:00,53.6,44.8,30.32,SW,235,4.0,4.0,72,0.00,,,0.00,0,Wunderground v.1.15,2013-01-19 19:35:00,
2013-01-19 11:42:00,54.2,45.0,30.32,WNW,286,3.0,4.0,71,0.00,,,0.00,0,Wunderground v.1.15,2013-01-19 19:42:00,
2013-01-19 11:47:00,54.8,45.6,30.32,WSW,247,3.0,4.0,71,0.00,,,0.00,0,Wunderground v.1.15,2013-01-19 19:47:00,
2013-01-19 11:53:00,55.3,46.4,30.31,SW,233,1.0,2.0,72,0.00,,,0.00,0,Wunderground v.1.15,2013-01-19 19:53:00,
2013-01-19 12:00:00,55.4,45.8,30.31,NW,311,3.0,3.0,70,0.00,,,0.00,0,Wunderground v.1.15,2013-01-19 20:00:00,
2013-01-19 12:09:00,56.0,45.2,30.31,SW,219,0.0,5.0,67,0.00,,,0.00,0,Wunderground v.1.15,2013-01-19 20:09:00,
2013-01-19 12:15:00,56.2,44.2,30.31,NNW,330,0.0,3.0,64,0.00,,,0.00,0,Wunderground v.1.15,2013-01-19 20:15:00,
2013-01-19 12:20:00,56.5,44.9,30.30,WSW,244,0.0,1.0,65,0.00,,,0.00,0,Wunderground v.1.15,2013-01-19 20:20:00,
2013-01-19 12:26:00,56.8,45.2,30.30,SSW,198,0.0,1.0,65,0.00,,,0.00,0,Wunderground v.1.15,2013-01-19 20:26:00,
2013-01-19 12:33:00,57.1,45.8,30.30,NW,313,4.0,4.0,66,0.00,,,0.00,0,Wunderground v.1.15,2013-01-19 20:33:00,
2013-01-19 12:39:00,57.2,45.1,30.29,NW,317,3.0,4.0,64,0.00,,,0.00,0,Wunderground v.1.15,2013-01-19 20:39:00,
2013-01-19 12:45:00,57.1,46.2,30.29,West,281,2.0,6.0,67,0.00,,,0.00,0,Wunderground v.1.15,2013-01-19 20:45:00,
2013-01-19 12:50:00,57.4,46.5,30.28,WNW,294,2.0,3.0,67,0.00,,,0.00,0,Wunderground v.1.15,2013-01-19 20:50:00,
2013-01-19 12:56:00,57.4,46.1,30.28,WNW,285,2.0,5.0,66,0.00,,,0.00,0,Wunderground v.1.15,2013-01-19 20:56:00,
2013-01-19 13:02:00,57.4,45.7,30.28,NW,324,1.0,7.0,65,0.00,,,0.00,0,Wunderground v.1.15,2013-01-19 21:02:00,
2013-01-19 13:08:00,57.4,45.3,30.28,NW,311,2.0,7.0,64,0.00,,,0.00,0,Wunderground v.1.15,2013-01-19 21:08:00,
2013-01-19 13:14:00,57.4,45.3,30.27,NNW,340,4.0,5.0,64,0.00,,,0.00,0,Wunderground v.1.15,2013-01-19 21:14:00,
2013-01-19 13:20:00,57.4,45.3,30.27,WNW,295,1.0,1.0,64,0.00,,,0.00,0,Wunderground v.1.15,2013-01-19 21:20:00,
2013-01-19 13:25:00,57.6,45.5,30.27,NW,319,2.0,4.0,64,0.00,,,0.00,0,Wunderground v.1.15,2013-01-19 21:25:00,
2013-01-19 13:31:00,57.8,45.3,30.27,NW,308,3.0,3.0,63,0.00,,,0.00,0,Wunderground v.1.15,2013-01-19 21:31:00,
2013-01-19 13:37:00,57.9,45.4,30.27,NW,307,2.0,4.0,63,0.00,,,0.00,0,Wunderground v.1.15,2013-01-19 21:37:00,
2013-01-19 13:43:00,58.1,44.7,30.26,NW,326,3.0,4.0,61,0.00,,,0.00,0,Wunderground v.1.15,2013-01-19 21:43:00,
2013-01-19 13:48:00,58.4,45.4,30.26,WNW,297,3.0,4.0,62,0.00,,,0.00,0,Wunderground v.1.15,2013-01-19 21:48:00,
2013-01-19 13:56:00,58.6,45.6,30.26,WNW,286,3.0,5.0,62,0.00,,,0.00,0,Wunderground v.1.15,2013-01-19 21:56:00,
2013-01-19 14:01:00,58.8,45.8,30.26,WNW,297,3.0,7.0,62,0.00,,,0.00,0,Wunderground v.1.15,2013-01-19 22:01:00,
2013-01-19 14:07:00,58.9,45.9,30.26,NW,321,0.0,7.0,62,0.00,,,0.00,0,Wunderground v.1.15,2013-01-19 22:07:00,
2013-01-19 14:13:00,59.1,45.7,30.25,NW,315,4.0,5.0,61,0.00,,,0.00,0,Wunderground v.1.15,2013-01-19 22:13:00,
2013-01-19 14:18:00,59.2,46.2,30.25,WNW,295,4.0,5.0,62,0.00,,,0.00,0,Wunderground v.1.15,2013-01-19 22:18:00,
2013-01-19 14:23:00,59.4,46.4,30.25,NW,309,4.0,5.0,62,0.00,,,0.00,0,Wunderground v.1.15,2013-01-19 22:23:00,
2013-01-19 14:29:00,59.6,46.6,30.25,West,271,2.0,5.0,62,0.00,,,0.00,0,Wunderground v.1.15,2013-01-19 22:29:00,
2013-01-19 14:34:00,59.7,46.2,30.25,WNW,288,1.0,4.0,61,0.00,,,0.00,0,Wunderground v.1.15,2013-01-19 22:34:00,
2013-01-19 14:40:00,59.8,46.3,30.24,NW,306,6.0,6.0,61,0.00,,,0.00,0,Wunderground v.1.15,2013-01-19 22:40:00,
2013-01-19 14:45:00,59.8,46.3,30.24,WNW,288,0.0,6.0,61,0.00,,,0.00,0,Wunderground v.1.15,2013-01-19 22:45:00,
2013-01-19 14:50:00,59.8,45.4,30.23,NNW,328,5.0,5.0,59,0.00,,,0.00,0,Wunderground v.1.15,2013-01-19 22:50:00,
2013-01-19 14:55:00,59.7,45.8,30.23,WSW,243,1.0,5.0,60,0.00,,,0.00,0,Wunderground v.1.15,2013-01-19 22:55:00,
2013-01-19 15:02:00,59.6,46.1,30.23,NW,306,6.0,6.0,61,0.00,,,0.00,0,Wunderground v.1.15,2013-01-19 23:02:00,
2013-01-19 15:09:00,59.5,46.0,30.23,WNW,303,2.0,6.0,61,0.00,,,0.00,0,Wunderground v.1.15,2013-01-19 23:09:00,
2013-01-19 15:14:00,59.5,46.0,30.23,West,279,2.0,5.0,61,0.00,,,0.00,0,Wunderground v.1.15,2013-01-19 23:14:00,
2013-01-19 15:19:00,59.6,46.1,30.23,NW,304,3.0,3.0,61,0.00,,,0.00,0,Wunderground v.1.15,2013-01-19 23:19:00,
2013-01-19 15:25:00,59.6,45.2,30.23,WNW,293,5.0,5.0,59,0.00,,,0.00,0,Wunderground v.1.15,2013-01-19 23:25:00,
2013-01-19 15:30:00,59.5,45.2,30.23,WNW,293,0.0,2.0,59,0.00,,,0.00,0,Wunderground v.1.15,2013-01-19 23:30:00,
2013-01-19 15:36:00,59.5,45.2,30.23,NW,317,3.0,5.0,59,0.00,,,0.00,0,Wunderground v.1.15,2013-01-19 23:36:00,
2013-01-19 15:41:00,59.5,44.7,30.23,WNW,301,1.0,1.0,58,0.00,,,0.00,0,Wunderground v.1.15,2013-01-19 23:41:00,
2013-01-19 15:47:00,59.3,44.5,30.23,NW,306,0.0,2.0,58,0.00,,,0.00,0,Wunderground v.1.15,2013-01-19 23:47:00,
2013-01-19 15:55:00,59.2,44.0,30.23,NW,315,2.0,4.0,57,0.00,,,0.00,0,Wunderground v.1.15,2013-01-19 23:55:00,
2013-01-19 16:00:00,59.1,43.9,30.23,NW,316,1.0,6.0,57,0.00,,,0.00,0,Wunderground v.1.15,2013-01-20 00:00:00,
2013-01-19 16:07:00,58.9,43.7,30.23,NNW,331,4.0,6.0,57,0.00,,,0.00,0,Wunderground v.1.15,2013-01-20 00:07:00,
2013-01-19 16:14:00,58.8,43.1,30.22,NNW,330,2.0,3.0,56,0.00,,,0.00,0,Wunderground v.1.15,2013-01-20 00:14:00,
2013-01-19 16:19:00,58.6,42.9,30.22,NNW,327,0.0,0.0,56,0.00,,,0.00,0,Wunderground v.1.15,2013-01-20 00:19:00,
2013-01-19 16:24:00,58.5,43.3,30.22,WNW,301,2.0,2.0,57,0.00,,,0.00,0,Wunderground v.1.15,2013-01-20 00:24:00,
2013-01-19 16:30:00,58.3,43.1,30.22,NW,307,3.0,3.0,57,0.00,,,0.00,0,Wunderground v.1.15,2013-01-20 00:30:00,
2013-01-19 16:36:00,58.2,43.5,30.23,NW,306,0.0,3.0,58,0.00,,,0.00,0,Wunderground v.1.15,2013-01-20 00:36:00,
2013-01-19 16:42:00,58.0,43.3,30.23,NW,306,0.0,0.0,58,0.00,,,0.00,0,Wunderground v.1.15,2013-01-20 00:42:00,
2013-01-19 16:47:00,57.8,43.6,30.22,NW,306,0.0,0.0,59,0.00,,,0.00,0,Wunderground v.1.15,2013-01-20 00:47:00,
2013-01-19 16:52:00,57.6,43.8,30.22,NW,306,0.0,0.0,60,0.00,,,0.00,0,Wunderground v.1.15,2013-01-20 00:52:00,
2013-01-19 16:58:00,57.4,44.1,30.22,NW,306,0.0,0.0,61,0.00,,,0.00,0,Wunderground v.1.15,2013-01-20 00:58:00,
2013-01-19 17:03:00,57.1,44.2,30.22,NW,306,0.0,5.0,62,0.00,,,0.00,0,Wunderground v.1.15,2013-01-20 01:03:00,
2013-01-19 17:09:00,56.8,44.3,30.22,NW,306,0.0,5.0,63,0.00,,,0.00,0,Wunderground v.1.15,2013-01-20 01:09:00,
2013-01-19 17:16:00,56.5,44.0,30.22,NW,306,0.0,0.0,63,0.00,,,0.00,0,Wunderground v.1.15,2013-01-20 01:16:00,
2013-01-19 17:22:00,56.1,44.1,30.22,NW,306,0.0,0.0,64,0.00,,,0.00,0,Wunderground v.1.15,2013-01-20 01:22:00,
2013-01-19 17:27:00,55.8,43.8,30.22,NW,306,0.0,0.0,64,0.00,,,0.00,0,Wunderground v.1.15,2013-01-20 01:27:00,
2013-01-19 17:33:00,55.5,43.9,30.22,NW,306,0.0,0.0,65,0.00,,,0.00,0,Wunderground v.1.15,2013-01-20 01:33:00,
2013-01-19 17:39:00,55.0,43.8,30.22,NW,306,0.0,0.0,66,0.00,,,0.00,0,Wunderground v.1.15,2013-01-20 01:39:00,
2013-01-19 17:44:00,54.0,43.3,30.22,NW,306,0.0,0.0,67,0.00,,,0.00,0,Wunderground v.1.15,2013-01-20 01:44:00,
2013-01-19 17:49:00,53.0,43.1,30.21,NW,306,0.0,0.0,69,0.00,,,0.00,0,Wunderground v.1.15,2013-01-20 01:49:00,
2013-01-19 17:55:00,52.3,43.2,30.22,NW,306,0.0,0.0,71,0.00,,,0.00,0,Wunderground v.1.15,2013-01-20 01:55:00,
2013-01-19 18:01:00,52.2,42.7,30.21,NW,306,0.0,3.0,70,0.00,,,0.00,0,Wunderground v.1.15,2013-01-20 02:01:00,
2013-01-19 18:07:00,51.9,43.2,30.22,NW,306,0.0,3.0,72,0.00,,,0.00,0,Wunderground v.1.15,2013-01-20 02:07:00,
2013-01-19 18:12:00,51.6,43.2,30.22,NW,306,0.0,0.0,73,0.00,,,0.00,0,Wunderground v.1.15,2013-01-20 02:12:00,
2013-01-19 18:18:00,51.0,42.3,30.22,NW,306,0.0,0.0,72,0.00,,,0.00,0,Wunderground v.1.15,2013-01-20 02:18:00,
2013-01-19 18:24:00,50.1,42.5,30.22,NW,306,0.0,0.0,75,0.00,,,0.00,0,Wunderground v.1.15,2013-01-20 02:24:00,
2013-01-19 18:29:00,49.6,42.3,30.23,NNW,333,0.0,0.0,76,0.00,,,0.00,0,Wunderground v.1.15,2013-01-20 02:29:00,
2013-01-19 18:34:00,49.0,42.1,30.23,NNW,333,0.0,0.0,77,0.00,,,0.00,0,Wunderground v.1.15,2013-01-20 02:34:00,
2013-01-19 18:40:00,48.5,42.0,30.23,NNW,333,0.0,0.0,78,0.00,,,0.00,0,Wunderground v.1.15,2013-01-20 02:40:00,
2013-01-19 18:47:00,48.1,41.6,30.23,NNW,333,0.0,0.0,78,0.00,,,0.00,0,Wunderground v.1.15,2013-01-20 02:47:00,
2013-01-19 18:52:00,47.7,41.2,30.23,NNW,333,0.0,0.0,78,0.00,,,0.00,0,Wunderground v.1.15,2013-01-20 02:52:00,
2013-01-19 18:58:00,47.6,41.4,30.23,NNW,333,0.0,0.0,79,0.00,,,0.00,0,Wunderground v.1.15,2013-01-20 02:58:00,
2013-01-19 19:07:00,46.8,41.0,30.23,NNW,333,0.0,0.0,80,0.00,,,0.00,0,Wunderground v.1.15,2013-01-20 03:07:00,
2013-01-19 19:12:00,46.7,41.2,30.23,NNW,333,0.0,0.0,81,0.00,,,0.00,0,Wunderground v.1.15,2013-01-20 03:12:00,
2013-01-19 19:18:00,46.7,41.2,30.24,NNW,333,0.0,0.0,81,0.00,,,0.00,0,Wunderground v.1.15,2013-01-20 03:18:00,
2013-01-19 19:23:00,46.5,41.3,30.23,East,81,0.0,0.0,82,0.00,,,0.00,0,Wunderground v.1.15,2013-01-20 03:23:00,
2013-01-19 19:29:00,46.6,41.4,30.23,East,81,0.0,0.0,82,0.00,,,0.00,0,Wunderground v.1.15,2013-01-20 03:29:00,
2013-01-19 19:34:00,46.5,41.0,30.23,East,81,0.0,0.0,81,0.00,,,0.00,0,Wunderground v.1.15,2013-01-20 03:34:00,
2013-01-19 19:39:00,46.5,41.3,30.23,East,81,0.0,0.0,82,0.00,,,0.00,0,Wunderground v.1.15,2013-01-20 03:39:00,
2013-01-19 19:44:00,46.5,41.6,30.23,East,81,0.0,0.0,83,0.00,,,0.00,0,Wunderground v.1.15,2013-01-20 03:44:00,
2013-01-19 19:49:00,46.2,41.0,30.23,East,87,0.0,0.0,82,0.00,,,0.00,0,Wunderground v.1.15,2013-01-20 03:49:00,
2013-01-19 19:55:00,45.8,41.2,30.24,East,99,0.0,0.0,84,0.00,,,0.00,0,Wunderground v.1.15,2013-01-20 03:55:00,
2013-01-19 20:00:00,45.5,40.9,30.24,East,98,0.0,0.0,84,0.00,,,0.00,0,Wunderground v.1.15,2013-01-20 04:00:00,
2013-01-19 20:07:00,45.3,41.1,30.24,East,98,0.0,0.0,85,0.00,,,0.00,0,Wunderground v.1.15,2013-01-20 04:07:00,
2013-01-19 20:13:00,45.0,40.8,30.24,East,99,0.0,0.0,85,0.00,,,0.00,0,Wunderground v.1.15,2013-01-20 04:13:00,
2013-01-19 20:18:00,44.6,40.7,30.24,East,98,0.0,0.0,86,0.00,,,0.00,0,Wunderground v.1.15,2013-01-20 04:18:00,
2013-01-19 20:23:00,44.3,40.4,30.24,ESE,109,0.0,0.0,86,0.00,,,0.00,0,Wunderground v.1.15,2013-01-20 04:23:00,
2013-01-19 20:28:00,43.9,40.3,30.24,ESE,108,0.0,0.0,87,0.00,,,0.00,0,Wunderground v.1.15,2013-01-20 04:28:00,
2013-01-19 20:33:00,43.7,40.4,30.24,ESE,108,0.0,0.0,88,0.00,,,0.00,0,Wunderground v.1.15,2013-01-20 04:33:00,
2013-01-19 20:39:00,43.8,40.8,30.25,East,100,0.0,0.0,89,0.00,,,0.00,0,Wunderground v.1.15,2013-01-20 04:39:00,
2013-01-19 20:44:00,43.9,40.6,30.25,ESE,103,0.0,0.0,88,0.00,,,0.00,0,Wunderground v.1.15,2013-01-20 04:44:00,
2013-01-19 20:50:00,43.6,40.0,30.25,ENE,61,0.0,0.0,87,0.00,,,0.00,0,Wunderground v.1.15,2013-01-20 04:50:00,
2013-01-19 20:55:00,43.3,40.0,30.25,ENE,60,0.0,0.0,88,0.00,,,0.00,0,Wunderground v.1.15,2013-01-20 04:55:00,
2013-01-19 21:01:00,43.5,40.2,30.25,ESE,106,0.0,1.0,88,0.00,,,0.00,0,Wunderground v.1.15,2013-01-20 05:01:00,
2013-01-19 21:02:00,43.5,40.5,30.26,ESE,106,0.0,1.0,89,0.00,,,0.00,0,Wunderground v.1.15,2013-01-20 05:02:00,
2013-01-19 21:03:00,43.6,40.6,30.26,ESE,106,0.0,1.0,89,0.00,,,0.00,0,Wunderground v.1.15,2013-01-20 05:03:00,
2013-01-19 21:10:00,43.8,41.1,30.25,ESE,106,0.0,0.0,90,0.00,,,0.00,0,Wunderground v.1.15,2013-01-20 05:10:00,
2013-01-19 21:11:00,43.8,41.1,30.25,ESE,106,0.0,0.0,90,0.00,,,0.00,0,Wunderground v.1.15,2013-01-20 05:11:00,
2013-01-19 21:16:00,44.1,41.4,30.26,ESE,106,0.0,0.0,90,0.00,,,0.00,0,Wunderground v.1.15,2013-01-20 05:16:00,
2013-01-19 21:22:00,44.3,41.6,30.26,ESE,106,0.0,0.0,90,0.00,,,0.00,0,Wunderground v.1.15,2013-01-20 05:22:00,
2013-01-19 21:28:00,44.3,41.6,30.26,ESE,106,0.0,0.0,90,0.00,,,0.00,0,Wunderground v.1.15,2013-01-20 05:28:00,
2013-01-19 21:32:00,44.4,41.7,30.26,ESE,106,0.0,0.0,90,0.00,,,0.00,0,Wunderground v.1.15,2013-01-20 05:32:00,
2013-01-19 21:37:00,44.7,41.7,30.26,ESE,106,1.0,1.0,89,0.00,,,0.00,0,Wunderground v.1.15,2013-01-20 05:37:00,
2013-01-19 21:43:00,45.2,41.9,30.27,ESE,105,3.0,3.0,88,0.00,,,0.00,0,Wunderground v.1.15,2013-01-20 05:43:00,
2013-01-19 21:49:00,45.6,42.0,30.27,ESE,116,2.0,2.0,87,0.00,,,0.00,0,Wunderground v.1.15,2013-01-20 05:49:00,
2013-01-19 21:55:00,45.9,41.9,30.27,ESE,113,1.0,3.0,86,0.00,,,0.00,0,Wunderground v.1.15,2013-01-20 05:55:00,
2013-01-19 22:01:00,45.7,41.8,30.28,East,99,2.0,2.0,86,0.00,,,0.00,0,Wunderground v.1.15,2013-01-20 06:01:00,
2013-01-19 22:07:00,45.2,41.6,30.28,ESE,115,0.0,2.0,87,0.00,,,0.00,0,Wunderground v.1.15,2013-01-20 06:07:00,
2013-01-19 22:13:00,44.5,41.2,30.28,ESE,110,1.0,1.0,88,0.00,,,0.00,0,Wunderground v.1.15,2013-01-20 06:13:00,
2013-01-19 22:18:00,44.4,41.4,30.28,ESE,110,0.0,1.0,89,0.00,,,0.00,0,Wunderground v.1.15,2013-01-20 06:18:00,
2013-01-19 22:24:00,44.3,41.3,30.29,ESE,110,0.0,0.0,89,0.00,,,0.00,0,Wunderground v.1.15,2013-01-20 06:24:00,
2013-01-19 22:30:00,44.1,41.1,30.28,ESE,110,0.0,0.0,89,0.00,,,0.00,0,Wunderground v.1.15,2013-01-20 06:30:00,
2013-01-19 22:35:00,44.1,41.4,30.29,ESE,110,1.0,1.0,90,0.00,,,0.00,0,Wunderground v.1.15,2013-01-20 06:35:00,
2013-01-19 22:41:00,44.2,41.2,30.30,ESE,113,0.0,1.0,89,0.00,,,0.00,0,Wunderground v.1.15,2013-01-20 06:41:00,
2013-01-19 22:47:00,44.4,41.1,30.29,ESE,107,1.0,1.0,88,0.00,,,0.00,0,Wunderground v.1.15,2013-01-20 06:47:00,
2013-01-19 22:52:00,44.6,41.0,30.30,ESE,117,1.0,1.0,87,0.00,,,0.00,0,Wunderground v.1.15,2013-01-20 06:52:00,
2013-01-19 22:58:00,44.8,41.2,30.30,ESE,109,2.0,3.0,87,0.00,,,0.00,0,Wunderground v.1.15,2013-01-20 06:58:00,
2013-01-19 23:04:00,45.4,41.2,30.30,SE,127,1.0,5.0,85,0.00,,,0.00,0,Wunderground v.1.15,2013-01-20 07:04:00,
2013-01-19 23:09:00,45.7,41.1,30.30,ESE,119,2.0,2.0,84,0.00,,,0.00,0,Wunderground v.1.15,2013-01-20 07:09:00,
2013-01-19 23:14:00,45.8,41.2,30.30,ESE,107,2.0,3.0,84,0.00,,,0.00,0,Wunderground v.1.15,2013-01-20 07:14:00,
2013-01-19 23:20:00,45.7,41.1,30.30,ESE,120,1.0,2.0,84,0.00,,,0.00,0,Wunderground v.1.15,2013-01-20 07:20:00,
2013-01-19 23:26:00,45.4,41.2,30.30,ESE,119,0.0,2.0,85,0.00,,,0.00,0,Wunderground v.1.15,2013-01-20 07:26:00,
2013-01-19 23:33:00,45.1,41.2,30.30,ESE,119,0.0,0.0,86,0.00,,,0.00,0,Wunderground v.1.15,2013-01-20 07:33:00,
2013-01-19 23:38:00,44.5,40.9,30.30,ESE,119,0.0,0.0,87,0.00,,,0.00,0,Wunderground v.1.15,2013-01-20 07:38:00,
2013-01-19 23:44:00,44.3,40.4,30.30,ESE,119,0.0,0.0,86,0.00,,,0.00,0,Wunderground v.1.15,2013-01-20 07:44:00,
2013-01-19 23:50:00,44.2,40.3,30.30,ESE,111,0.0,0.0,86,0.00,,,0.00,0,Wunderground v.1.15,2013-01-20 07:50:00,
2013-01-19 23:55:00,44.3,40.4,30.30,ESE,110,0.0,0.0,86,0.00,,,0.00,0,Wunderground v.1.15,2013-01-20 07:55:00,